Terminal Aerodrome Forecast
Issued by NWS

Home | Current Version | Previous Version | Text Only | Print | Product List | Glossary On
Versions: 1 2 3 4 5 6 7 8 9 10 11 12 13 14 15 16 17 18 19 20 21 22 23 24 25 26 27
701
FTUS41 KBUF 171501 AAA
TAFJHW
TAF AMD
KJHW 171501Z 1715/1812 23014G20KT P6SM SKC
     FM172200 23012KT P6SM SKC
     FM180600 23008KT P6SM FEW250
      AMD LTD TO CLD VIS AND WIND=

USA.gov is the U.S. government's official web portal to all federal, state and local government web resources and services.